KellyUSA Airport, TX

7:28 PM CDT on June 28, 2017 (GMT -0500)
Kelly Air Force Base

Weather History for KSKF - June, 2013

Change the Weather History Date:

Saturday, June 29, 2013

  Actual Average Record
Temperature  
Mean Temperature 88 °F -  
Max Temperature 105 °F 91 °F 105 °F (2013)
Min Temperature 72 °F 72 °F 68 °F (2004)
Cooling Degree Days 23    
Growing Degree Days 38 (Base 50)    
Moisture  
Dew Point 65 °F    
Average Humidity 49    
Maximum Humidity 87    
Minimum Humidity 23    
Precipitation  
Precipitation 0.00 in - - ()
Sea Level Pressure  
Sea Level Pressure 29.80 in    
Wind  
Wind Speed 5 mph (NE)    
Max Wind Speed 12 mph    
Max Gust Speed -    
Visibility 10 miles    
Events Rain    
Averages and records for this station are not official NWS values.
T = Trace of Precipitation, MM = Missing Value Source: NWS Daily Summary

Daily Weather History Graph

Daily Weather History Graph

Search for Another Location

Airport or City:

Trip Planner

Search our weather history database for the weather conditions in past years. The results will help you decide how hot, cold, wet, or windy it might be!

Date:

Astronomy

Jun. 29, 2013 Rise Set
Actual Time 6:37 AM CDT 8:38 PM CDT
Civil Twilight 6:10 AM CDT 9:05 PM CDT
Nautical Twilight 5:37 AM CDT 9:38 PM CDT
Astronomical Twilight 5:02 AM CDT 10:13 PM CDT
Moon 12:39 AM CDT 1:16 PM CDT
Length of Visible Light 14h 54m
Length of Day
14h 00m
Waning Gibbous, 55% of the Moon is Illuminated
Jun 29
Waning Gibbous
Jun 29
Last Quarter
Jul 8
New
Jul 15
First Quarter
Jul 22
Full

Hourly Weather History & Observations

Time (CDT) Temp. Heat Index Dew Point Humidity Pressure Visibility Wind Dir Wind Speed Gust Speed Precip Events Conditions
12:58 AM 78.8 °F - 64.2 °F 61% 29.83 in 10.0 mi South 8.1 mph - 0.00 in   Clear
1:44 AM 78.8 °F - 66.2 °F 65% 29.85 in 10.0 mi South 2.3 mph - N/A Rain Light Rain
1:53 AM 80.6 °F 82.7 °F 66.2 °F 61% 29.85 in 10.0 mi South 4.6 mph - N/A   Partly Cloudy
1:58 AM 80.1 °F 82.4 °F 67.3 °F 65% 29.83 in 10.0 mi SSW 3.5 mph - 0.00 in   Partly Cloudy
2:58 AM 75.4 °F - 68.9 °F 80% 29.83 in 10.0 mi Calm Calm - N/A   Clear
3:58 AM 74.7 °F - 68.2 °F 80% 29.84 in 10.0 mi NNW 2.3 mph - N/A   Clear
4:58 AM 73.4 °F - 68.0 °F 83% 29.84 in 10.0 mi NNW 2.3 mph - N/A   Clear
5:58 AM 72.1 °F - 68.2 °F 87% 29.85 in 10.0 mi WNW 1.2 mph - N/A   Clear
6:58 AM 73.8 °F - 68.0 °F 82% 29.85 in 10.0 mi WNW 2.3 mph - N/A   Clear
7:58 AM 77.9 °F - 70.9 °F 79% 29.87 in 10.0 mi NNW 1.2 mph - N/A   Clear
8:58 AM 83.3 °F 87.9 °F 70.9 °F 66% 29.87 in 10.0 mi Variable 1.2 mph - N/A   Clear
9:58 AM 86.9 °F 91.3 °F 69.3 °F 56% 29.86 in 10.0 mi Variable 5.8 mph - N/A   Clear
10:58 AM 91.2 °F 97.5 °F 70.5 °F 51% 29.85 in 10.0 mi Variable 4.6 mph - N/A   Clear
11:58 AM 94.3 °F 100.4 °F 70.0 °F 45% 29.84 in 10.0 mi Variable 2.3 mph - N/A   Clear
12:58 PM 98.1 °F 104.4 °F 69.4 °F 39% 29.83 in 10.0 mi WNW 4.6 mph - N/A   Scattered Clouds
1:56 PM 100.6 °F 104.6 °F 65.8 °F 32% 29.81 in 10.0 mi Variable 2.3 mph - N/A   Mostly Cloudy
2:58 PM 102.2 °F 105.5 °F 64.4 °F 29% 29.78 in 10.0 mi NNE 10.4 mph - N/A   Clear
3:58 PM 104.0 °F 106.0 °F 61.2 °F 25% 29.75 in 10.0 mi North 5.8 mph - N/A   Clear
4:30 PM 104.0 °F 105.3 °F 60.8 °F 24% 29.77 in 10.0 mi East 3.5 mph - N/A   Partly Cloudy
4:58 PM 104.9 °F 106.1 °F 60.3 °F 23% 29.73 in 10.0 mi NE 11.5 mph - N/A   Clear
5:58 PM 103.6 °F 104.7 °F 59.7 °F 24% 29.73 in 10.0 mi ESE 6.9 mph - N/A   Clear
6:58 PM 102.0 °F 103.3 °F 60.6 °F 26% 29.72 in 10.0 mi East 6.9 mph - N/A   Clear
7:58 PM 100.0 °F 100.2 °F 59.0 °F 26% 29.71 in 10.0 mi ENE 6.9 mph - N/A   Clear
8:58 PM 96.3 °F 96.3 °F 59.9 °F 30% 29.71 in 10.0 mi East 5.8 mph - N/A   Clear
9:58 PM 93.4 °F 92.8 °F 59.0 °F 32% 29.73 in 10.0 mi ENE 5.8 mph - N/A   Clear
10:58 PM 93.2 °F 91.9 °F 57.2 °F 30% 29.74 in 10.0 mi ENE 8.1 mph - N/A   Partly Cloudy
11:58 PM 91.6 °F 90.7 °F 58.3 °F 33% 29.76 in 10.0 mi ENE 10.4 mph - N/A   Mostly Cloudy